owner,sensor,date,latitude,longitude,vertical_datum,wind_speed,wind_to_direction,wind_speed_of_gust,qcFlag 
ADCP,ioos:station:wmo:42376:1,2012-07-01T00:00:00Z,29.1080,-87.9440,1.0,3.2,209.0,99.0,'11111222,11111222,11144222' 
ADCP,ioos:station:wmo:42376:1,2012-07-01T00:20:00Z,29.1080,-87.9440,1.0,3.2,209.0,99.0,'11111222,11111222,11144222' 
ADCP,ioos:station:wmo:42376:1,2012-07-01T00:40:00Z,29.1080,-87.9440,1.0,3.2,209.0,99.0,'11111222,11111222,11144222' 
ADCP,ioos:station:wmo:42376:1,2012-07-01T01:00:00Z,29.1080,-87.9440,1.0,3.2,209.0,99.0,'11111222,11111222,11144222' 
ADCP,ioos:station:wmo:42376:1,2012-07-01T01:20:00Z,29.1080,-87.9440,1.0,3.2,209.0,99.0,'11111222,11111222,11144222' 
ADCP,ioos:station:wmo:42376:1,2012-07-01T01:40:00Z,29.1080,-87.9440,1.0,3.2,209.0,99.0,'11111222,11111222,11144222' 
ADCP,ioos:station:wmo:42376:1,2012-07-01T02:00:00Z,29.1080,-87.9440,1.0,3.2,209.0,99.0,'11111222,11111222,11144222' 
ADCP,ioos:station:wmo:42376:1,2012-07-01T02:20:00Z,29.1080,-87.9440,1.0,3.2,209.0,99.0,'11111222,11111222,11144222' 
ADCP,ioos:station:wmo:42376:1,2012-07-01T02:40:00Z,29.1080,-87.9440,1.0,3.2,209.0,99.0,'11111222,11111222,11144222' 
ADCP,ioos:station:wmo:42376:1,2012-07-01T03:00:00Z,29.1080,-87.9440,1.0,3.2,209.0,99.0,'11111222,11111222,11144222' 
ADCP,ioos:station:wmo:42376:1,2012-07-01T03:20:00Z,29.1080,-87.9440,1.0,3.2,209.0,99.0,'11111222,11111222,11144222' 
ADCP,ioos:station:wmo:42376:1,2012-07-01T03:40:00Z,29.1080,-87.9440,1.0,3.2,209.0,99.0,'11111222,11111222,11144222' 
ADCP,ioos:station:wmo:42376:1,2012-07-01T04:00:00Z,29.1080,-87.9440,1.0,3.2,209.0,99.0,'11111222,11111222,11144222' 
ADCP,ioos:station:wmo:42376:1,2012-07-01T04:20:00Z,29.1080,-87.9440,1.0,3.2,209.0,99.0,'11111222,11111222,11144222' 
ADCP,ioos:station:wmo:42376:1,2012-07-01T04:40:00Z,29.1080,-87.9440,1.0,3.2,209.0,99.0,'11111222,11111222,11144222' 
ADCP,ioos:station:wmo:42376:1,2012-07-01T05:00:00Z,29.1080,-87.9440,1.0,3.2,209.0,99.0,'11111222,11111222,11144222' 
ADCP,ioos:station:wmo:42376:1,2012-07-01T05:20:00Z,29.1080,-87.9440,1.0,3.2,209.0,99.0,'11111222,11111222,11144222' 
ADCP,ioos:station:wmo:42376:1,2012-07-01T05:40:00Z,29.1080,-87.9440,1.0,3.2,209.0,99.0,'11111222,11111222,11144222' 
ADCP,ioos:station:wmo:42376:1,2012-07-01T06:00:00Z,29.1080,-87.9440,1.0,3.2,209.0,99.0,'11111222,11111222,11144222' 
ADCP,ioos:station:wmo:42376:1,2012-07-01T06:20:00Z,29.1080,-87.9440,1.0,3.2,209.0,99.0,'11111222,11111222,11144222' 
ADCP,ioos:station:wmo:42376:1,2012-07-01T06:40:00Z,29.1080,-87.9440,1.0,3.2,209.0,99.0,'11111222,11111222,11144222' 
ADCP,ioos:station:wmo:42376:1,2012-07-01T07:00:00Z,29.1080,-87.9440,1.0,3.2,209.0,99.0,'11111222,11111222,11144222' 
ADCP,ioos:station:wmo:42376:1,2012-07-01T07:20:00Z,29.1080,-87.9440,1.0,3.2,209.0,99.0,'11111222,11111222,11144222' 
ADCP,ioos:station:wmo:42376:1,2012-07-01T07:40:00Z,29.1080,-87.9440,1.0,3.2,209.0,99.0,'11111222,11111222,11144222' 
ADCP,ioos:station:wmo:42376:1,2012-07-01T08:00:00Z,29.1080,-87.9440,1.0,3.2,209.0,99.0,'11111222,11111222,11144222' 
ADCP,ioos:station:wmo:42376:1,2012-07-01T08:20:00Z,29.1080,-87.9440,1.0,3.2,209.0,99.0,'11111222,11111222,11144222' 
ADCP,ioos:station:wmo:42376:1,2012-07-01T08:40:00Z,29.1080,-87.9440,1.0,3.2,209.0,99.0,'11111222,11111222,11144222' 
ADCP,ioos:station:wmo:42376:1,2012-07-01T09:00:00Z,29.1080,-87.9440,1.0,3.2,209.0,99.0,'11111222,11111222,11144222' 
ADCP,ioos:station:wmo:42376:1,2012-07-01T09:20:00Z,29.1080,-87.9440,1.0,3.2,209.0,99.0,'11111222,11111222,11144222' 
ADCP,ioos:station:wmo:42376:1,2012-07-01T09:40:00Z,29.1080,-87.9440,1.0,3.2,209.0,99.0,'11111222,11111222,11144222' 
ADCP,ioos:station:wmo:42376:1,2012-07-01T10:00:00Z,29.1080,-87.9440,1.0,3.2,209.0,99.0,'11111222,11111222,11144222' 
ADCP,ioos:station:wmo:42376:1,2012-07-01T10:20:00Z,29.1080,-87.9440,1.0,3.2,209.0,99.0,'11111222,11111222,11144222' 
ADCP,ioos:station:wmo:42376:1,2012-07-01T10:40:00Z,29.1080,-87.9440,1.0,3.2,209.0,99.0,'11111222,11111222,11144222' 
ADCP,ioos:station:wmo:42376:1,2012-07-01T11:00:00Z,29.1080,-87.9440,1.0,3.2,209.0,99.0,'11111222,11111222,11144222' 
ADCP,ioos:station:wmo:42376:1,2012-07-01T11:20:00Z,29.1080,-87.9440,1.0,3.2,209.0,99.0,'11111222,11111222,11144222' 
ADCP,ioos:station:wmo:42376:1,2012-07-01T11:40:00Z,29.1080,-87.9440,1.0,3.2,209.0,99.0,'11111222,11111222,11144222' 
ADCP,ioos:station:wmo:42376:1,2012-07-01T12:00:00Z,29.1080,-87.9440,1.0,3.2,209.0,99.0,'11111222,11111222,11144222' 
ADCP,ioos:station:wmo:42376:1,2012-07-01T12:20:00Z,29.1080,-87.9440,1.0,3.2,209.0,99.0,'11111222,11111222,11144222' 
ADCP,ioos:station:wmo:42376:1,2012-07-01T12:40:00Z,29.1080,-87.9440,1.0,3.2,209.0,99.0,'11111222,11111222,11144222' 
ADCP,ioos:station:wmo:42376:1,2012-07-01T13:00:00Z,29.1080,-87.9440,1.0,3.2,209.0,99.0,'11111222,11111222,11144222' 
ADCP,ioos:station:wmo:42376:1,2012-07-01T13:20:00Z,29.1080,-87.9440,1.0,3.2,209.0,99.0,'11111222,11111222,11144222' 
ADCP,ioos:station:wmo:42376:1,2012-07-01T13:40:00Z,29.1080,-87.9440,1.0,3.2,209.0,99.0,'11111222,11111222,11144222' 
ADCP,ioos:station:wmo:42376:1,2012-07-01T14:00:00Z,29.1080,-87.9440,1.0,3.2,209.0,99.0,'11111222,11111222,11144222' 
ADCP,ioos:station:wmo:42376:1,2012-07-01T14:20:00Z,29.1080,-87.9440,1.0,3.2,209.0,99.0,'11111222,11111222,11144222' 
ADCP,ioos:station:wmo:42376:1,2012-07-01T14:40:00Z,29.1080,-87.9440,1.0,3.2,209.0,99.0,'11111222,11111222,11144222' 
ADCP,ioos:station:wmo:42376:1,2012-07-01T15:00:00Z,29.1080,-87.9440,1.0,3.2,209.0,99.0,'11111222,11111222,11144222' 
ADCP,ioos:station:wmo:42376:1,2012-07-01T15:20:00Z,29.1080,-87.9440,1.0,3.2,209.0,99.0,'11111222,11111222,11144222' 
ADCP,ioos:station:wmo:42376:1,2012-07-01T15:40:00Z,29.1080,-87.9440,1.0,3.2,209.0,99.0,'11111222,11111222,11144222' 
ADCP,ioos:station:wmo:42376:1,2012-07-01T16:00:00Z,29.1080,-87.9440,1.0,3.2,209.0,99.0,'11111222,11111222,11144222' 
ADCP,ioos:station:wmo:42376:1,2012-07-01T16:20:00Z,29.1080,-87.9440,1.0,3.2,209.0,99.0,'11111222,11111222,11144222' 
ADCP,ioos:station:wmo:42376:1,2012-07-01T16:40:00Z,29.1080,-87.9440,1.0,3.2,209.0,99.0,'11111222,11111222,11144222' 
ADCP,ioos:station:wmo:42376:1,2012-07-01T17:00:00Z,29.1080,-87.9440,1.0,3.2,209.0,99.0,'11111222,11111222,11144222' 
ADCP,ioos:station:wmo:42376:1,2012-07-01T17:20:00Z,29.1080,-87.9440,1.0,3.2,209.0,99.0,'11111222,11111222,11144222' 
ADCP,ioos:station:wmo:42376:1,2012-07-01T17:40:00Z,29.1080,-87.9440,1.0,3.2,209.0,99.0,'11111222,11111222,11144222' 
ADCP,ioos:station:wmo:42376:1,2012-07-01T18:00:00Z,29.1080,-87.9440,1.0,3.2,209.0,99.0,'11111222,11111222,11144222' 
ADCP,ioos:station:wmo:42376:1,2012-07-01T18:20:00Z,29.1080,-87.9440,1.0,3.2,209.0,99.0,'11111222,11111222,11144222' 
ADCP,ioos:station:wmo:42376:1,2012-07-01T18:40:00Z,29.1080,-87.9440,1.0,3.2,209.0,99.0,'11111222,11111222,11144222' 
ADCP,ioos:station:wmo:42376:1,2012-07-01T19:00:00Z,29.1080,-87.9440,1.0,3.2,209.0,99.0,'11111222,11111222,11144222' 
ADCP,ioos:station:wmo:42376:1,2012-07-01T19:20:00Z,29.1080,-87.9440,1.0,3.2,209.0,99.0,'11111222,11111222,11144222' 
ADCP,ioos:station:wmo:42376:1,2012-07-01T19:40:00Z,29.1080,-87.9440,1.0,3.2,209.0,99.0,'11111222,11111222,11144222' 
ADCP,ioos:station:wmo:42376:1,2012-07-01T20:00:00Z,29.1080,-87.9440,1.0,3.2,209.0,99.0,'11111222,11111222,11144222' 
ADCP,ioos:station:wmo:42376:1,2012-07-01T20:20:00Z,29.1080,-87.9440,1.0,3.2,209.0,99.0,'11111222,11111222,11144222' 
ADCP,ioos:station:wmo:42376:1,2012-07-01T20:40:00Z,29.1080,-87.9440,1.0,3.2,209.0,99.0,'11111222,11111222,11144222' 
ADCP,ioos:station:wmo:42376:1,2012-07-01T21:00:00Z,29.1080,-87.9440,1.0,3.2,209.0,99.0,'11111222,11111222,11144222' 
ADCP,ioos:station:wmo:42376:1,2012-07-01T21:20:00Z,29.1080,-87.9440,1.0,3.2,209.0,99.0,'11111222,11111222,11144222' 
ADCP,ioos:station:wmo:42376:1,2012-07-01T21:40:00Z,29.1080,-87.9440,1.0,3.2,209.0,99.0,'11111222,11111222,11144222' 
ADCP,ioos:station:wmo:42376:1,2012-07-01T22:00:00Z,29.1080,-87.9440,1.0,3.2,209.0,99.0,'11111222,11111222,11144222' 
ADCP,ioos:station:wmo:42376:1,2012-07-01T22:20:00Z,29.1080,-87.9440,1.0,3.2,209.0,99.0,'11111222,11111222,11144222' 
ADCP,ioos:station:wmo:42376:1,2012-07-01T22:40:00Z,29.1080,-87.9440,1.0,3.2,209.0,99.0,'11111222,11111222,11144222' 
ADCP,ioos:station:wmo:42376:1,2012-07-01T23:00:00Z,29.1080,-87.9440,1.0,3.2,209.0,99.0,'11111222,11111222,11144222' 
ADCP,ioos:station:wmo:42376:1,2012-07-01T23:20:00Z,29.1080,-87.9440,1.0,3.2,209.0,99.0,'11111222,11111222,11144222' 
ADCP,ioos:station:wmo:42376:1,2012-07-01T23:40:00Z,29.1080,-87.9440,1.0,3.2,209.0,99.0,'11111222,11111222,11144222' 
ADCP,ioos:station:wmo:42376:1,2012-07-02T00:00:00Z,29.1080,-87.9440,1.0,3.2,209.0,99.0,'11111222,11111222,11144222' 
ADCP,ioos:station:wmo:42376:1,2012-07-02T00:20:00Z,29.1080,-87.9440,1.0,3.2,209.0,99.0,'11111222,11111222,11144222' 
ADCP,ioos:station:wmo:42376:1,2012-07-02T00:40:00Z,29.1080,-87.9440,1.0,3.2,209.0,99.0,'11111222,11111222,11144222' 
ADCP,ioos:station:wmo:42376:1,2012-07-02T01:00:00Z,29.1080,-87.9440,1.0,3.2,209.0,99.0,'11111222,11111222,11144222' 
ADCP,ioos:station:wmo:42376:1,2012-07-02T01:20:00Z,29.1080,-87.9440,1.0,3.2,209.0,99.0,'11111222,11111222,11144222' 
ADCP,ioos:station:wmo:42376:1,2012-07-02T01:40:00Z,29.1080,-87.9440,1.0,3.2,209.0,99.0,'11111222,11111222,11144222' 
ADCP,ioos:station:wmo:42376:1,2012-07-02T02:00:00Z,29.1080,-87.9440,1.0,3.2,209.0,99.0,'11111222,11111222,11144222' 
ADCP,ioos:station:wmo:42376:1,2012-07-02T02:20:00Z,29.1080,-87.9440,1.0,3.2,209.0,99.0,'11111222,11111222,11144222' 
ADCP,ioos:station:wmo:42376:1,2012-07-02T02:40:00Z,29.1080,-87.9440,1.0,3.2,209.0,99.0,'11111222,11111222,11144222' 
ADCP,ioos:station:wmo:42376:1,2012-07-02T03:00:00Z,29.1080,-87.9440,1.0,3.2,209.0,99.0,'11111222,11111222,11144222' 
ADCP,ioos:station:wmo:42376:1,2012-07-02T03:20:00Z,29.1080,-87.9440,1.0,3.2,209.0,99.0,'11111222,11111222,11144222' 
ADCP,ioos:station:wmo:42376:1,2012-07-02T03:40:00Z,29.1080,-87.9440,1.0,3.2,209.0,99.0,'11111222,11111222,11144222' 
ADCP,ioos:station:wmo:42376:1,2012-07-02T04:00:00Z,29.1080,-87.9440,1.0,3.2,209.0,99.0,'11111222,11111222,11144222' 
ADCP,ioos:station:wmo:42376:1,2012-07-02T04:20:00Z,29.1080,-87.9440,1.0,3.2,209.0,99.0,'11111222,11111222,11144222' 
ADCP,ioos:station:wmo:42376:1,2012-07-02T04:40:00Z,29.1080,-87.9440,1.0,3.7,257.0,99.0,'11111222,11111222,11144222' 
ADCP,ioos:station:wmo:42376:1,2012-07-02T05:00:00Z,29.1080,-87.9440,1.0,5.4,265.0,99.0,'11111222,11111222,11144222' 
ADCP,ioos:station:wmo:42376:1,2012-07-02T05:20:00Z,29.1080,-87.9440,1.0,4.7,313.0,99.0,'11111222,11111222,11144222' 
ADCP,ioos:station:wmo:42376:1,2012-07-02T05:40:00Z,29.1080,-87.9440,1.0,1.1,218.0,99.0,'11111222,11111222,11144222' 
ADCP,ioos:station:wmo:42376:1,2012-07-02T06:00:00Z,29.1080,-87.9440,1.0,2.9,257.0,99.0,'11111222,11111222,11144222' 
ADCP,ioos:station:wmo:42376:1,2012-07-02T06:20:00Z,29.1080,-87.9440,1.0,2.5,280.0,99.0,'11111222,11111222,11144222' 
ADCP,ioos:station:wmo:42376:1,2012-07-02T06:40:00Z,29.1080,-87.9440,1.0,4.7,311.0,99.0,'11111222,11111222,11144222' 
ADCP,ioos:station:wmo:42376:1,2012-07-02T07:00:00Z,29.1080,-87.9440,1.0,4.7,311.0,99.0,'11111222,11111222,11144222' 
ADCP,ioos:station:wmo:42376:1,2012-07-02T07:20:00Z,29.1080,-87.9440,1.0,5.1,309.0,99.0,'11111222,11111222,11144222' 
ADCP,ioos:station:wmo:42376:1,2012-07-02T07:40:00Z,29.1080,-87.9440,1.0,5.1,309.0,99.0,'11111222,11111222,11144222' 
ADCP,ioos:station:wmo:42376:1,2012-07-02T08:00:00Z,29.1080,-87.9440,1.0,4.6,311.0,99.0,'11111222,11111222,11144222' 
ADCP,ioos:station:wmo:42376:1,2012-07-02T08:20:00Z,29.1080,-87.9440,1.0,4.3,312.0,99.0,'11111222,11111222,11144222' 
ADCP,ioos:station:wmo:42376:1,2012-07-02T08:40:00Z,29.1080,-87.9440,1.0,4.3,312.0,99.0,'11111222,11111222,11144222' 
ADCP,ioos:station:wmo:42376:1,2012-07-02T09:00:00Z,29.1080,-87.9440,1.0,4.3,312.0,99.0,'11111222,11111222,11144222' 
ADCP,ioos:station:wmo:42376:1,2012-07-02T09:20:00Z,29.1080,-87.9440,1.0,4.3,312.0,99.0,'11111222,11111222,11144222' 
ADCP,ioos:station:wmo:42376:1,2012-07-02T09:40:00Z,29.1080,-87.9440,1.0,3.5,308.0,99.0,'11111222,11111222,11144222' 
ADCP,ioos:station:wmo:42376:1,2012-07-02T10:00:00Z,29.1080,-87.9440,1.0,3.5,308.0,99.0,'11111222,11111222,11144222' 
ADCP,ioos:station:wmo:42376:1,2012-07-02T10:20:00Z,29.1080,-87.9440,1.0,3.5,308.0,99.0,'11111222,11111222,11144222' 
ADCP,ioos:station:wmo:42376:1,2012-07-02T10:40:00Z,29.1080,-87.9440,1.0,3.4,306.0,99.0,'11111222,11111222,11144222' 
ADCP,ioos:station:wmo:42376:1,2012-07-02T11:00:00Z,29.1080,-87.9440,1.0,3.5,307.0,99.0,'11111222,11111222,11144222' 
ADCP,ioos:station:wmo:42376:1,2012-07-02T11:20:00Z,29.1080,-87.9440,1.0,3.5,307.0,99.0,'11111222,11111222,11144222' 
ADCP,ioos:station:wmo:42376:1,2012-07-02T11:40:00Z,29.1080,-87.9440,1.0,3.4,308.0,99.0,'11111222,11111222,11144222' 
ADCP,ioos:station:wmo:42376:1,2012-07-02T12:00:00Z,29.1080,-87.9440,1.0,3.6,309.0,99.0,'11111222,11111222,11144222' 
ADCP,ioos:station:wmo:42376:1,2012-07-02T12:20:00Z,29.1080,-87.9440,1.0,3.6,309.0,99.0,'11111222,11111222,11144222' 
ADCP,ioos:station:wmo:42376:1,2012-07-02T12:40:00Z,29.1080,-87.9440,1.0,3.3,306.0,99.0,'11111222,11111222,11144222' 
ADCP,ioos:station:wmo:42376:1,2012-07-02T13:00:00Z,29.1080,-87.9440,1.0,3.6,308.0,99.0,'11111222,11111222,11144222' 
ADCP,ioos:station:wmo:42376:1,2012-07-02T13:20:00Z,29.1080,-87.9440,1.0,3.6,308.0,99.0,'11111222,11111222,11144222' 
ADCP,ioos:station:wmo:42376:1,2012-07-02T13:40:00Z,29.1080,-87.9440,1.0,3.4,310.0,99.0,'11111222,11111222,11144222' 
ADCP,ioos:station:wmo:42376:1,2012-07-02T14:00:00Z,29.1080,-87.9440,1.0,3.4,308.0,99.0,'11111222,11111222,11144222' 
ADCP,ioos:station:wmo:42376:1,2012-07-02T14:20:00Z,29.1080,-87.9440,1.0,3.4,308.0,99.0,'11111222,11111222,11144222' 
ADCP,ioos:station:wmo:42376:1,2012-07-02T14:40:00Z,29.1080,-87.9440,1.0,3.4,308.0,99.0,'11111222,11111222,11144222' 
ADCP,ioos:station:wmo:42376:1,2012-07-02T15:00:00Z,29.1080,-87.9440,1.0,3.3,298.0,99.0,'11111222,11111222,11144222' 
ADCP,ioos:station:wmo:42376:1,2012-07-02T15:20:00Z,29.1080,-87.9440,1.0,3.3,298.0,99.0,'11111222,11111222,11144222' 
ADCP,ioos:station:wmo:42376:1,2012-07-02T15:40:00Z,29.1080,-87.9440,1.0,3.3,298.0,99.0,'11111222,11111222,11144222' 
ADCP,ioos:station:wmo:42376:1,2012-07-02T16:00:00Z,29.1080,-87.9440,1.0,3.3,298.0,99.0,'11111222,11111222,11144222' 
ADCP,ioos:station:wmo:42376:1,2012-07-02T16:20:00Z,29.1080,-87.9440,1.0,3.3,298.0,99.0,'11111222,11111222,11144222' 
ADCP,ioos:station:wmo:42376:1,2012-07-02T16:40:00Z,29.1080,-87.9440,1.0,3.3,298.0,99.0,'11111222,11111222,11144222' 
ADCP,ioos:station:wmo:42376:1,2012-07-02T17:00:00Z,29.1080,-87.9440,1.0,4.2,298.0,99.0,'11111222,11111222,11144222' 
ADCP,ioos:station:wmo:42376:1,2012-07-02T17:20:00Z,29.1080,-87.9440,1.0,4.2,298.0,99.0,'11111222,11111222,11144222' 
ADCP,ioos:station:wmo:42376:1,2012-07-02T17:40:00Z,29.1080,-87.9440,1.0,4.2,298.0,99.0,'11111222,11111222,11144222' 
ADCP,ioos:station:wmo:42376:1,2012-07-02T18:00:00Z,29.1080,-87.9440,1.0,4.2,298.0,99.0,'11111222,11111222,11144222' 
ADCP,ioos:station:wmo:42376:1,2012-07-02T19:00:00Z,29.1080,-87.9440,1.0,5.8,312.0,99.0,'11111222,11111222,11144222' 
ADCP,ioos:station:wmo:42376:1,2012-07-02T19:20:00Z,29.1080,-87.9440,1.0,4.7,320.0,99.0,'11111222,11111222,11144222' 
ADCP,ioos:station:wmo:42376:1,2012-07-02T19:40:00Z,29.1080,-87.9440,1.0,2.1,321.0,99.0,'11111222,11111222,11144222' 
ADCP,ioos:station:wmo:42376:1,2012-07-02T20:20:00Z,29.1080,-87.9440,1.0,2.1,321.0,99.0,'11111222,11111222,11144222' 
ADCP,ioos:station:wmo:42376:1,2012-07-02T20:40:00Z,29.1080,-87.9440,1.0,2.1,321.0,99.0,'11111222,11111222,11144222' 
ADCP,ioos:station:wmo:42376:1,2012-07-02T21:00:00Z,29.1080,-87.9440,1.0,2.1,321.0,99.0,'11111222,11111222,11144222' 
ADCP,ioos:station:wmo:42376:1,2012-07-02T21:20:00Z,29.1080,-87.9440,1.0,2.1,321.0,99.0,'11111222,11111222,11144222' 
ADCP,ioos:station:wmo:42376:1,2012-07-02T21:40:00Z,29.1080,-87.9440,1.0,2.1,321.0,99.0,'11111222,11111222,11144222' 
ADCP,ioos:station:wmo:42376:1,2012-07-02T22:00:00Z,29.1080,-87.9440,1.0,2.1,321.0,99.0,'11111222,11111222,11144222' 
ADCP,ioos:station:wmo:42376:1,2012-07-02T22:20:00Z,29.1080,-87.9440,1.0,2.1,321.0,99.0,'11111222,11111222,11144222' 
ADCP,ioos:station:wmo:42376:1,2012-07-02T22:40:00Z,29.1080,-87.9440,1.0,2.1,321.0,99.0,'11111222,11111222,11144222' 
ADCP,ioos:station:wmo:42376:1,2012-07-02T23:00:00Z,29.1080,-87.9440,1.0,2.1,321.0,99.0,'11111222,11111222,11144222' 
ADCP,ioos:station:wmo:42376:1,2012-07-02T23:20:00Z,29.1080,-87.9440,1.0,2.1,321.0,99.0,'11111222,11111222,11144222' 
ADCP,ioos:station:wmo:42376:1,2012-07-02T23:40:00Z,29.1080,-87.9440,1.0,2.1,321.0,99.0,'11111222,11111222,11144222' 
ADCP,ioos:station:wmo:42376:1,2012-07-03T00:00:00Z,29.1080,-87.9440,1.0,2.1,321.0,99.0,'11111222,11111222,11144222' 
ADCP,ioos:station:wmo:42376:1,2012-07-03T00:20:00Z,29.1080,-87.9440,1.0,2.1,321.0,99.0,'11111222,11111222,11144222' 
ADCP,ioos:station:wmo:42376:1,2012-07-03T00:40:00Z,29.1080,-87.9440,1.0,2.1,321.0,99.0,'11111222,11111222,11144222' 
ADCP,ioos:station:wmo:42376:1,2012-07-03T01:00:00Z,29.1080,-87.9440,1.0,2.1,321.0,99.0,'11111222,11111222,11144222' 
ADCP,ioos:station:wmo:42376:1,2012-07-03T01:20:00Z,29.1080,-87.9440,1.0,2.1,321.0,99.0,'11111222,11111222,11144222' 
ADCP,ioos:station:wmo:42376:1,2012-07-03T01:40:00Z,29.1080,-87.9440,1.0,2.1,321.0,99.0,'11111222,11111222,11144222' 
ADCP,ioos:station:wmo:42376:1,2012-07-03T02:00:00Z,29.1080,-87.9440,1.0,2.1,321.0,99.0,'11111222,11111222,11144222' 
ADCP,ioos:station:wmo:42376:1,2012-07-03T02:20:00Z,29.1080,-87.9440,1.0,2.1,321.0,99.0,'11111222,11111222,11144222' 
ADCP,ioos:station:wmo:42376:1,2012-07-03T02:40:00Z,29.1080,-87.9440,1.0,2.1,321.0,99.0,'11111222,11111222,11144222' 
ADCP,ioos:station:wmo:42376:1,2012-07-03T03:00:00Z,29.1080,-87.9440,1.0,2.1,321.0,99.0,'11111222,11111222,11144222' 
ADCP,ioos:station:wmo:42376:1,2012-07-03T03:20:00Z,29.1080,-87.9440,1.0,2.1,321.0,99.0,'11111222,11111222,11144222' 
ADCP,ioos:station:wmo:42376:1,2012-07-03T03:40:00Z,29.1080,-87.9440,1.0,2.1,321.0,99.0,'11111222,11111222,11144222' 
ADCP,ioos:station:wmo:42376:1,2012-07-03T04:00:00Z,29.1080,-87.9440,1.0,2.1,321.0,99.0,'11111222,11111222,11144222' 
ADCP,ioos:station:wmo:42376:1,2012-07-03T04:20:00Z,29.1080,-87.9440,1.0,2.1,321.0,99.0,'11111222,11111222,11144222' 
ADCP,ioos:station:wmo:42376:1,2012-07-03T04:40:00Z,29.1080,-87.9440,1.0,2.1,321.0,99.0,'11111222,11111222,11144222' 
ADCP,ioos:station:wmo:42376:1,2012-07-03T05:00:00Z,29.1080,-87.9440,1.0,2.1,321.0,99.0,'11111222,11111222,11144222' 
ADCP,ioos:station:wmo:42376:1,2012-07-03T05:20:00Z,29.1080,-87.9440,1.0,2.1,321.0,99.0,'11111222,11111222,11144222' 
ADCP,ioos:station:wmo:42376:1,2012-07-03T05:40:00Z,29.1080,-87.9440,1.0,2.3,313.0,99.0,'11111222,11111222,11144222' 
ADCP,ioos:station:wmo:42376:1,2012-07-03T06:00:00Z,29.1080,-87.9440,1.0,2.8,297.0,99.0,'11111222,11111222,11144222' 
ADCP,ioos:station:wmo:42376:1,2012-07-03T06:20:00Z,29.1080,-87.9440,1.0,4.5,267.0,99.0,'11111222,11111222,11144222' 
ADCP,ioos:station:wmo:42376:1,2012-07-03T06:40:00Z,29.1080,-87.9440,1.0,3.7,253.0,99.0,'11111222,11111222,11144222' 
ADCP,ioos:station:wmo:42376:1,2012-07-03T07:00:00Z,29.1080,-87.9440,1.0,3.7,253.0,99.0,'11111222,11111222,11144222' 
ADCP,ioos:station:wmo:42376:1,2012-07-03T07:20:00Z,29.1080,-87.9440,1.0,3.7,253.0,99.0,'11111222,11111222,11144222' 
ADCP,ioos:station:wmo:42376:1,2012-07-03T07:40:00Z,29.1080,-87.9440,1.0,3.7,253.0,99.0,'11111222,11111222,11144222' 
ADCP,ioos:station:wmo:42376:1,2012-07-03T08:00:00Z,29.1080,-87.9440,1.0,5.4,255.0,99.0,'11111222,11111222,11144222' 
ADCP,ioos:station:wmo:42376:1,2012-07-03T08:20:00Z,29.1080,-87.9440,1.0,5.4,255.0,99.0,'11111222,11111222,11144222' 
ADCP,ioos:station:wmo:42376:1,2012-07-03T08:40:00Z,29.1080,-87.9440,1.0,6.4,276.0,99.0,'11111222,11111222,11144222' 
ADCP,ioos:station:wmo:42376:1,2012-07-03T09:00:00Z,29.1080,-87.9440,1.0,6.6,275.0,99.0,'11111222,11111222,11144222' 
ADCP,ioos:station:wmo:42376:1,2012-07-03T09:20:00Z,29.1080,-87.9440,1.0,6.6,275.0,99.0,'11111222,11111222,11144222' 
ADCP,ioos:station:wmo:42376:1,2012-07-03T09:40:00Z,29.1080,-87.9440,1.0,5.3,279.0,99.0,'11111222,11111222,11144222' 
ADCP,ioos:station:wmo:42376:1,2012-07-03T10:00:00Z,29.1080,-87.9440,1.0,3.9,295.0,99.0,'11111222,11111222,11144222' 
ADCP,ioos:station:wmo:42376:1,2012-07-03T10:20:00Z,29.1080,-87.9440,1.0,3.9,295.0,99.0,'11111222,11111222,11144222' 
ADCP,ioos:station:wmo:42376:1,2012-07-03T10:40:00Z,29.1080,-87.9440,1.0,4.2,296.0,99.0,'11111222,11111222,11144222' 
ADCP,ioos:station:wmo:42376:1,2012-07-03T11:00:00Z,29.1080,-87.9440,1.0,4.5,304.0,99.0,'11111222,11111222,11144222' 
ADCP,ioos:station:wmo:42376:1,2012-07-03T11:20:00Z,29.1080,-87.9440,1.0,4.5,304.0,99.0,'11111222,11111222,11144222' 
ADCP,ioos:station:wmo:42376:1,2012-07-03T11:40:00Z,29.1080,-87.9440,1.0,5.2,309.0,99.0,'11111222,11111222,11144222' 
ADCP,ioos:station:wmo:42376:1,2012-07-03T12:00:00Z,29.1080,-87.9440,1.0,6.0,312.0,99.0,'11111222,11111222,11144222' 
ADCP,ioos:station:wmo:42376:1,2012-07-03T12:20:00Z,29.1080,-87.9440,1.0,6.0,312.0,99.0,'11111222,11111222,11144222' 
ADCP,ioos:station:wmo:42376:1,2012-07-03T12:40:00Z,29.1080,-87.9440,1.0,5.7,309.0,99.0,'11111222,11111222,11144222' 
ADCP,ioos:station:wmo:42376:1,2012-07-03T13:00:00Z,29.1080,-87.9440,1.0,5.7,259.0,99.0,'11111222,11111222,11144222' 
ADCP,ioos:station:wmo:42376:1,2012-07-03T13:20:00Z,29.1080,-87.9440,1.0,5.7,259.0,99.0,'11111222,11111222,11144222' 
ADCP,ioos:station:wmo:42376:1,2012-07-03T13:40:00Z,29.1080,-87.9440,1.0,5.7,259.0,99.0,'11111222,11111222,11144222' 
ADCP,ioos:station:wmo:42376:1,2012-07-03T14:00:00Z,29.1080,-87.9440,1.0,5.7,259.0,99.0,'11111222,11111222,11144222' 
ADCP,ioos:station:wmo:42376:1,2012-07-03T14:20:00Z,29.1080,-87.9440,1.0,5.7,259.0,99.0,'11111222,11111222,11144222' 
ADCP,ioos:station:wmo:42376:1,2012-07-03T14:40:00Z,29.1080,-87.9440,1.0,5.9,34.0,99.0,'11111222,11111222,11144222' 
ADCP,ioos:station:wmo:42376:1,2012-07-03T15:00:00Z,29.1080,-87.9440,1.0,5.6,33.0,99.0,'11111222,11111222,11144222' 
ADCP,ioos:station:wmo:42376:1,2012-07-03T15:20:00Z,29.1080,-87.9440,1.0,5.6,33.0,99.0,'11111222,11111222,11144222' 
ADCP,ioos:station:wmo:42376:1,2012-07-03T15:40:00Z,29.1080,-87.9440,1.0,5.2,33.0,99.0,'11111222,11111222,11144222' 
ADCP,ioos:station:wmo:42376:1,2012-07-03T16:00:00Z,29.1080,-87.9440,1.0,3.7,34.0,99.0,'11111222,11111222,11144222' 
ADCP,ioos:station:wmo:42376:1,2012-07-03T16:20:00Z,29.1080,-87.9440,1.0,3.7,34.0,99.0,'11111222,11111222,11144222' 
ADCP,ioos:station:wmo:42376:1,2012-07-03T16:40:00Z,29.1080,-87.9440,1.0,2.6,40.0,99.0,'11111222,11111222,11144222' 
ADCP,ioos:station:wmo:42376:1,2012-07-03T17:00:00Z,29.1080,-87.9440,1.0,2.1,44.0,99.0,'11111222,11111222,11144222' 
ADCP,ioos:station:wmo:42376:1,2012-07-03T17:20:00Z,29.1080,-87.9440,1.0,2.1,44.0,99.0,'11111222,11111222,11144222' 
ADCP,ioos:station:wmo:42376:1,2012-07-03T17:40:00Z,29.1080,-87.9440,1.0,2.1,40.0,99.0,'11111222,11111222,11144222' 
ADCP,ioos:station:wmo:42376:1,2012-07-03T18:00:00Z,29.1080,-87.9440,1.0,2.7,154.0,99.0,'11111222,11111222,11144222' 
ADCP,ioos:station:wmo:42376:1,2012-07-03T18:20:00Z,29.1080,-87.9440,1.0,2.7,154.0,99.0,'11111222,11111222,11144222' 
ADCP,ioos:station:wmo:42376:1,2012-07-03T18:40:00Z,29.1080,-87.9440,1.0,3.5,315.0,99.0,'11111222,11111222,11144222' 
ADCP,ioos:station:wmo:42376:1,2012-07-03T19:00:00Z,29.1080,-87.9440,1.0,3.4,287.0,99.0,'11111222,11111222,11144222' 
ADCP,ioos:station:wmo:42376:1,2012-07-03T19:20:00Z,29.1080,-87.9440,1.0,3.4,287.0,99.0,'11111222,11111222,11144222' 
ADCP,ioos:station:wmo:42376:1,2012-07-03T19:40:00Z,29.1080,-87.9440,1.0,3.4,177.0,99.0,'11111222,11111222,11144222' 
ADCP,ioos:station:wmo:42376:1,2012-07-03T20:00:00Z,29.1080,-87.9440,1.0,3.2,286.0,99.0,'11111222,11111222,11144222' 
ADCP,ioos:station:wmo:42376:1,2012-07-03T20:20:00Z,29.1080,-87.9440,1.0,3.2,286.0,99.0,'11111222,11111222,11144222' 
ADCP,ioos:station:wmo:42376:1,2012-07-03T20:40:00Z,29.1080,-87.9440,1.0,4.5,282.0,99.0,'11111222,11111222,11144222' 